Change the Weather History Date:

Friday, October 12, 2012

  Actual Average Record
Temperature  
Mean Temperature 66 °F 61 °F  
Max Temperature 71 °F 73 °F 91 °F (1978)
Min Temperature 60 °F 49 °F 32 °F (1965)
Degree Days  
Heating Degree Days 0 6  
Month to date heating degree days 123 58  
Since 1 July heating degree days 147 100  
Cooling Degree Days 1 2  
Month to date cooling degree days 3 29  
Year to date cooling degree days 2064 1671  
Growing Degree Days 15 (Base 50)    
Moisture  
Dew Point 62 °F    
Average Humidity 91    
Maximum Humidity 100    
Minimum Humidity 81    
Precipitation  
Precipitation 2.32 in 0.13 in 2.32 in (2012)
Month to date precipitation 2.39 1.58  
Year to date precipitation 33.41 37.50  
Snow  
Snow 0.00 in - - ()
Month to date snowfall 0.0  
Snow Depth 0.00 in    
Sea Level Pressure  
Sea Level Pressure 30.15 in    
Wind  
Wind Speed 6 mph (East)    
Max Wind Speed 20 mph    
Max Gust Speed 28 mph    
Visibility 7 miles    
Events Fog , Rain , Thunderstorm    
T = Trace of Precipitation, MM = Missing Value Source: NWS Daily Summary

Daily Weather History Graph

Daily Weather History Graph

Search for Another Location

Airport or City:

Trip Planner

Search our weather history database for the weather conditions in past years. The results will help you decide how hot, cold, wet, or windy it might be!

Date:

Astronomy

Oct. 12, 2012 Rise Set
Actual Time 7:23 AM CDT 6:44 PM CDT
Civil Twilight 6:57 AM CDT 7:10 PM CDT
Nautical Twilight 6:27 AM CDT 7:40 PM CDT
Astronomical Twilight 5:57 AM CDT 8:10 PM CDT
Moon 4:11 AM CDT (10/12) 4:51 PM CDT (10/12)
Length of Visible Light 12h 13m
Length of Day
11h 21m
Waning Crescent, 10% of the Moon is Illuminated
Oct 12
Waning Crescent
Oct 15
New
Oct 21
First Quarter
Oct 29
Full
Nov 6
Last Quarter

Hourly Weather History & Observations

Time (CDT) Temp. Dew Point Humidity Pressure Visibility Wind Dir Wind Speed Gust Speed Precip Events Conditions
12:53 AM 66.9 °F 62.1 °F 84% 30.12 in 10.0 mi South 8.1 mph - N/A   Scattered Clouds
1:53 AM 68.0 °F 63.0 °F 84% 30.11 in 10.0 mi South 9.2 mph - N/A   Mostly Cloudy
2:53 AM 69.8 °F 64.4 °F 83% 30.10 in 10.0 mi South 10.4 mph - N/A   Overcast
3:41 AM 68.0 °F 64.4 °F 88% 30.09 in 10.0 mi South 6.9 mph - N/A Thunderstorm Scattered Clouds
3:53 AM 68.0 °F 64.0 °F 87% 30.08 in 10.0 mi NE 4.6 mph - N/A   Scattered Clouds
4:17 AM 64.4 °F 60.8 °F 88% 30.12 in 9.0 mi NNE 12.7 mph 20.7 mph N/A   Overcast
4:42 AM 64.4 °F 60.8 °F 88% 30.13 in 10.0 mi NE 9.2 mph - N/A Thunderstorm Overcast
4:53 AM 64.9 °F 61.0 °F 87% 30.11 in 10.0 mi NNE 11.5 mph - 0.01 in Rain , Thunderstorm Light Thunderstorms and Rain
5:00 AM 62.6 °F 60.8 °F 94% 30.16 in 1.2 mi North 12.7 mph - 0.39 in Rain , Thunderstorm Heavy Thunderstorms and Rain
5:05 AM 62.6 °F 60.8 °F 94% 30.14 in 0.5 mi NE 13.8 mph 19.6 mph 0.78 in Fog , Rain , Thunderstorm Heavy Thunderstorms and Rain
5:12 AM 62.6 °F 62.6 °F 100% 30.15 in 0.8 mi ENE 9.2 mph 19.6 mph 1.03 in Rain , Thunderstorm Heavy Thunderstorms and Rain
5:17 AM 62.6 °F 62.6 °F 100% 30.14 in 1.0 mi ENE 10.4 mph 17.3 mph 1.20 in Rain , Thunderstorm Heavy Thunderstorms and Rain
5:44 AM 62.6 °F 62.6 °F 100% 30.16 in 1.5 mi East 5.8 mph - 1.67 in Rain , Thunderstorm Heavy Thunderstorms and Rain
5:53 AM 63.0 °F 62.1 °F 97% 30.14 in 1.8 mi SE 5.8 mph - 1.79 in Rain , Thunderstorm Heavy Thunderstorms and Rain
5:56 AM 62.6 °F 62.6 °F 100% 30.15 in 2.0 mi East 5.8 mph - 0.02 in Rain , Thunderstorm Heavy Thunderstorms and Rain
6:00 AM 62.6 °F 62.6 °F 100% 30.16 in 3.0 mi ENE 4.6 mph - 0.03 in Rain Rain
6:12 AM 62.6 °F 62.6 °F 100% 30.16 in 5.0 mi ENE 4.6 mph - 0.07 in Rain , Thunderstorm Light Rain
6:23 AM 62.6 °F 62.6 °F 100% 30.19 in 2.5 mi NNE 4.6 mph - 0.16 in Rain , Thunderstorm Light Rain
6:32 AM 62.6 °F 62.6 °F 100% 30.16 in 1.5 mi East 10.4 mph - 0.31 in Rain , Thunderstorm Thunderstorms and Rain
6:42 AM 62.6 °F 62.6 °F 100% 30.16 in 2.5 mi ENE 8.1 mph - 0.38 in Rain , Thunderstorm Thunderstorms and Rain
6:46 AM 62.6 °F 62.6 °F 100% 30.16 in 3.0 mi ENE 9.2 mph - 0.43 in Rain , Thunderstorm Thunderstorms and Rain
6:53 AM 62.1 °F 61.0 °F 96% 30.16 in 3.0 mi NE 10.4 mph - 0.46 in Rain , Thunderstorm Thunderstorms and Rain
7:03 AM 60.8 °F 60.8 °F 100% 30.18 in 6.0 mi NE 11.5 mph - 0.01 in Rain , Thunderstorm Thunderstorms and Rain
7:25 AM 60.8 °F 59.0 °F 94% 30.18 in 10.0 mi ENE 12.7 mph - 0.02 in Rain Light Rain
7:53 AM 60.1 °F 59.0 °F 96% 30.18 in 9.0 mi East 9.2 mph - 0.03 in Rain Light Rain
8:53 AM 60.8 °F 59.0 °F 94% 30.20 in 9.0 mi East 9.2 mph - N/A   Overcast
9:53 AM 60.1 °F 59.0 °F 96% 30.20 in 8.0 mi East 9.2 mph - N/A   Overcast
10:53 AM 60.1 °F 59.0 °F 96% 30.23 in 4.0 mi NE 4.6 mph - 0.03 in Rain Light Rain
11:53 AM 60.8 °F 60.8 °F 100% 30.23 in 4.0 mi East 5.8 mph - N/A   Overcast
12:53 PM 63.0 °F 61.0 °F 93% 30.19 in 6.0 mi Variable 6.9 mph - N/A   Overcast
1:53 PM 64.9 °F 62.1 °F 90% 30.17 in 10.0 mi East 4.6 mph - N/A   Overcast
2:53 PM 66.9 °F 63.0 °F 87% 30.14 in 10.0 mi East 5.8 mph - N/A   Overcast
3:53 PM 70.0 °F 64.0 °F 81% 30.14 in 10.0 mi East 3.5 mph - N/A   Scattered Clouds
4:53 PM 69.8 °F 64.4 °F 83% 30.15 in 10.0 mi Calm Calm - N/A   Clear
6:53 PM 66.0 °F 61.0 °F 84% 30.13 in 10.0 mi SSE 3.5 mph - 0.00 in   Partly Cloudy
7:53 PM 66.0 °F 61.0 °F 84% 30.12 in 10.0 mi SSE 4.6 mph - N/A   Partly Cloudy
8:53 PM 63.0 °F 62.1 °F 97% 30.13 in 10.0 mi East 3.5 mph - N/A   Mostly Cloudy
9:28 PM 62.6 °F 60.8 °F 94% 30.14 in 10.0 mi East 6.9 mph - N/A   Overcast
9:51 PM 62.6 °F 60.8 °F 94% 30.13 in 10.0 mi ESE 6.9 mph - N/A   Overcast
9:53 PM 63.0 °F 61.0 °F 93% 30.12 in 10.0 mi ESE 5.8 mph - N/A   Overcast
10:11 PM 62.6 °F 60.8 °F 94% 30.12 in 10.0 mi ESE 5.8 mph - N/A   Mostly Cloudy
10:53 PM 63.0 °F 61.0 °F 93% 30.12 in 10.0 mi ESE 4.6 mph - N/A   Clear
11:53 PM 61.0 °F 60.1 °F 97% 30.10 in 10.0 mi East 5.8 mph - N/A   Clear